| time (UTC) | temp F | wind direction | speed MPH | gust MPH | rain 1hr in | rain 24hr in | rain mn in | humidity % | barometer mb |
| 20260905231009 | 51 | 0 | 0.0 | 0.0 | 0.00 | 0.14 | 0.00 | 99 | 1018.0 |
| 20260905230010 | 51 | 0 | 0.0 | 0.0 | 0.00 | 0.14 | 0.00 | 99 | 1017.8 |
| 20260905225008 | 52 | 0 | 0.0 | 0.0 | 0.00 | 0.14 | 0.00 | 99 | 1017.7 |
| 20260905224008 | 52 | 0 | 0.0 | 0.0 | 0.00 | 0.14 | 0.00 | 99 | 1017.5 |
| 20260905223008 | 52 | 0 | 0.0 | 0.0 | 0.00 | 0.14 | 0.00 | 99 | 1017.4 |
| 20260905222008 | 53 | 45 | 0.0 | 1.0 | 0.00 | 0.14 | 0.00 | 99 | 1017.2 |
| 20260905221009 | 53 | 0 | 0.0 | 0.0 | 0.00 | 0.14 | 0.00 | 99 | 1017.1 |
| 20260905220012 | 53 | 45 | 0.0 | 2.0 | 0.00 | 0.14 | 0.00 | 99 | 1017.0 |
| 20260905215010 | 53 | 45 | 0.0 | 2.0 | 0.00 | 0.14 | 0.14 | 99 | 1017.0 |
| 20260905214009 | 54 | 0 | 0.0 | 0.0 | 0.00 | 0.14 | 0.14 | 98 | 1016.8 |
| 20260905213010 | 54 | 0 | 0.0 | 0.0 | 0.00 | 0.14 | 0.14 | 97 | 1016.6 |
| 20260905212011 | 55 | 0 | 0.0 | 0.0 | 0.00 | 0.14 | 0.14 | 96 | 1016.4 |
| 20260905211010 | 55 | 0 | 0.0 | 0.0 | 0.00 | 0.14 | 0.14 | 95 | 1016.4 |
| 20260905210010 | 56 | 0 | 0.0 | 0.0 | 0.00 | 0.14 | 0.14 | 94 | 1016.1 |
| 20260905205010 | 56 | 0 | 0.0 | 0.0 | 0.00 | 0.14 | 0.14 | 92 | 1016.0 |
| 20260905204010 | 57 | 0 | 0.0 | 0.0 | 0.00 | 0.14 | 0.14 | 91 | 1015.9 |
| 20260905203010 | 58 | 0 | 0.0 | 0.0 | 0.00 | 0.14 | 0.14 | 89 | 1015.6 |
| 20260905202010 | 59 | 45 | 0.0 | 1.0 | 0.00 | 0.14 | 0.14 | 88 | 1015.5 |
| 20260905201010 | 60 | 45 | 0.0 | 2.0 | 0.00 | 0.14 | 0.14 | 85 | 1015.5 |
| 20260905200010 | 60 | 168 | 0.0 | 2.0 | 0.00 | 0.14 | 0.14 | 84 | 1015.2 |
| 20260905195009 | 61 | 15 | 0.0 | 1.0 | 0.00 | 0.14 | 0.14 | 84 | 1015.0 |
| 20260905194010 | 62 | 358 | 0.0 | 2.0 | 0.00 | 0.14 | 0.14 | 83 | 1014.8 |
| 20260905193009 | 62 | 89 | 0.0 | 2.0 | 0.00 | 0.14 | 0.14 | 82 | 1014.7 |
| 20260905192010 | 63 | 31 | 0.0 | 4.0 | 0.00 | 0.14 | 0.14 | 81 | 1014.5 |
| 20260905191011 | 63 | 283 | 0.0 | 4.0 | 0.00 | 0.14 | 0.14 | 81 | 1014.5 |
| 20260905190010 | 63 | 329 | 0.0 | 5.0 | 0.00 | 0.14 | 0.14 | 81 | 1014.2 |
| 20260905185009 | 64 | 358 | 0.0 | 3.0 | 0.00 | 0.14 | 0.14 | 82 | 1013.9 |
| 20260905184010 | 63 | 332 | 0.0 | 4.0 | 0.00 | 0.14 | 0.14 | 83 | 1013.5 |
| 20260905183009 | 63 | 351 | 0.0 | 3.0 | 0.00 | 0.14 | 0.14 | 85 | 1013.5 |
| 20260905182010 | 64 | 340 | 1.0 | 2.0 | 0.00 | 0.14 | 0.14 | 86 | 1013.2 |
| 20260905181009 | 64 | 320 | 0.0 | 2.0 | 0.00 | 0.14 | 0.14 | 85 | 1013.0 |
| 20260905180010 | 65 | 1 | 0.0 | 1.0 | 0.00 | 0.14 | 0.14 | 84 | 1012.8 |
| 20260905175010 | 66 | 3 | 0.0 | 2.0 | 0.00 | 0.14 | 0.14 | 82 | 1012.5 |
| 20260905174009 | 67 | 1 | 0.0 | 2.0 | 0.00 | 0.14 | 0.14 | 81 | 1012.3 |
| 20260905173010 | 67 | 6 | 0.0 | 3.0 | 0.00 | 0.14 | 0.14 | 81 | 1012.0 |
| 20260905172009 | 68 | 338 | 0.0 | 4.0 | 0.00 | 0.14 | 0.14 | 80 | 1011.8 |
| 20260905171011 | 68 | 15 | 1.0 | 4.0 | 0.00 | 0.14 | 0.14 | 80 | 1011.7 |
| 20260905170010 | 69 | 41 | 0.0 | 4.0 | 0.00 | 0.14 | 0.14 | 79 | 1011.6 |
| 20260905165009 | 69 | 58 | 1.0 | 4.0 | 0.00 | 0.14 | 0.14 | 79 | 1011.4 |
| 20260905164009 | 70 | 30 | 2.0 | 4.0 | 0.00 | 0.14 | 0.14 | 77 | 1011.1 |
| 20260905163010 | 71 | 3 | 2.0 | 5.0 | 0.00 | 0.14 | 0.14 | 76 | 1011.0 |
| 20260905162010 | 71 | 343 | 1.0 | 8.0 | 0.00 | 0.14 | 0.14 | 75 | 1011.0 |
| 20260905161010 | 71 | 79 | 2.0 | 8.0 | 0.00 | 0.14 | 0.14 | 76 | 1010.8 |
| 20260905160013 | 71 | 330 | 2.0 | 8.0 | 0.00 | 0.14 | 0.14 | 78 | 1010.5 |
| 20260905155009 | 71 | 38 | 2.0 | 6.0 | 0.00 | 0.14 | 0.14 | 78 | 1010.7 |
| 20260905154009 | 70 | 268 | 2.0 | 8.0 | 0.00 | 0.14 | 0.14 | 78 | 1010.6 |
| 20260905153010 | 70 | 337 | 2.0 | 8.0 | 0.00 | 0.14 | 0.14 | 76 | 1010.5 |
| 20260905152009 | 71 | 14 | 0.0 | 7.0 | 0.00 | 0.14 | 0.14 | 76 | 1010.6 |
| 20260905151010 | 71 | 72 | 1.0 | 5.0 | 0.00 | 0.14 | 0.14 | 75 | 1010.4 |
| 20260905150009 | 71 | 19 | 2.0 | 8.0 | 0.00 | 0.14 | 0.14 | 76 | 1010.5 |
| 20260905145010 | 72 | 27 | 1.0 | 8.0 | 0.00 | 0.14 | 0.14 | 75 | 1010.4 |
| 20260905144010 | 72 | 30 | 2.0 | 11.0 | 0.00 | 0.14 | 0.14 | 74 | 1010.5 |
| 20260905143010 | 73 | 147 | 2.0 | 8.0 | 0.00 | 0.14 | 0.14 | 72 | 1010.4 |
| 20260905142009 | 73 | 302 | 2.0 | 7.0 | 0.00 | 0.14 | 0.14 | 74 | 1010.3 |
| 20260905141009 | 71 | 32 | 2.0 | 8.0 | 0.00 | 0.14 | 0.14 | 77 | 1010.4 |
| 20260905140009 | 71 | 27 | 2.0 | 7.0 | 0.00 | 0.14 | 0.14 | 77 | 1010.6 |
| 20260905135008 | 71 | 81 | 0.0 | 10.0 | 0.00 | 0.14 | 0.14 | 76 | 1010.7 |
| 20260905134009 | 73 | 126 | 3.0 | 10.0 | 0.00 | 0.14 | 0.14 | 72 | 1010.6 |
| 20260905133009 | 73 | 205 | 2.0 | 9.0 | 0.00 | 0.14 | 0.14 | 74 | 1010.7 |
| 20260905132009 | 71 | 3 | 3.0 | 10.0 | 0.00 | 0.14 | 0.14 | 76 | 1010.8 |
| 20260905131008 | 72 | 55 | 0.0 | 4.0 | 0.00 | 0.14 | 0.14 | 74 | 1011.0 |
| 20260905130009 | 74 | 120 | 2.0 | 10.0 | 0.00 | 0.14 | 0.14 | 73 | 1011.0 |
| 20260905125009 | 74 | 94 | 2.0 | 10.0 | 0.00 | 0.14 | 0.14 | 75 | 1011.1 |
| 20260905124009 | 73 | 199 | 2.0 | 5.0 | 0.00 | 0.14 | 0.14 | 77 | 1011.4 |
| 20260905123009 | 72 | 155 | 2.0 | 6.0 | 0.00 | 0.14 | 0.14 | 79 | 1011.5 |
| 20260905122008 | 71 | 322 | 1.0 | 8.0 | 0.00 | 0.14 | 0.14 | 80 | 1011.9 |
| 20260905121009 | 71 | 321 | 1.0 | 8.0 | 0.00 | 0.14 | 0.14 | 82 | 1012.0 |
| 20260905120011 | 70 | 96 | 3.0 | 8.0 | 0.00 | 0.14 | 0.14 | 82 | 1012.0 |
| 20260905115009 | 70 | 331 | 2.0 | 12.0 | 0.00 | 0.14 | 0.14 | 82 | 1012.2 |
| 20260905114010 | 69 | 216 | 4.0 | 9.0 | 0.00 | 0.14 | 0.14 | 84 | 1012.2 |
| 20260905113009 | 68 | 176 | 1.0 | 8.0 | 0.00 | 0.14 | 0.14 | 86 | 1012.4 |
| 20260905112008 | 68 | 166 | 2.0 | 6.0 | 0.00 | 0.14 | 0.14 | 87 | 1012.5 |
| 20260905111008 | 68 | 3 | 3.0 | 10.0 | 0.00 | 0.14 | 0.14 | 85 | 1012.2 |
| 20260905110011 | 69 | 1 | 4.0 | 10.0 | 0.00 | 0.14 | 0.14 | 85 | 1012.5 |
| 20260905105008 | 68 | 65 | 4.0 | 10.0 | 0.00 | 0.14 | 0.14 | 87 | 1012.6 |
| 20260905104008 | 68 | 177 | 1.0 | 7.0 | 0.00 | 0.14 | 0.14 | 88 | 1012.8 |
| 20260905103009 | 67 | 147 | 2.0 | 9.0 | 0.00 | 0.14 | 0.14 | 89 | 1012.6 |
| 20260905102008 | 67 | 30 | 4.0 | 9.0 | 0.00 | 0.14 | 0.14 | 89 | 1012.8 |
| 20260905101010 | 67 | 177 | 2.0 | 5.0 | 0.00 | 0.14 | 0.14 | 90 | 1012.7 |
| 20260905100013 | 67 | 59 | 2.0 | 8.0 | 0.00 | 0.14 | 0.14 | 95 | 1012.7 |
| 20260905095011 | 66 | 169 | 2.0 | 10.0 | 0.00 | 0.14 | 0.14 | 94 | 1012.8 |
| 20260905094009 | 67 | 99 | 3.0 | 10.0 | 0.00 | 0.14 | 0.14 | 94 | 1012.6 |
| 20260905093010 | 67 | 229 | 1.0 | 8.0 | 0.00 | 0.14 | 0.14 | 94 | 1012.9 |
| 20260905092011 | 68 | 139 | 1.0 | 7.0 | 0.00 | 0.14 | 0.14 | 94 | 1012.8 |
| 20260905091010 | 68 | 142 | 2.0 | 4.0 | 0.00 | 0.14 | 0.14 | 94 | 1013.1 |
| 20260905090010 | 68 | 72 | 1.0 | 4.0 | 0.00 | 0.14 | 0.14 | 95 | 1013.0 |
| 20260905085009 | 68 | 355 | 2.0 | 4.0 | 0.00 | 0.14 | 0.14 | 98 | 1013.0 |
| 20260905084010 | 66 | 7 | 1.0 | 6.0 | 0.00 | 0.14 | 0.14 | 99 | 1013.2 |
| 20260905083010 | 67 | 183 | 0.0 | 3.0 | 0.00 | 0.14 | 0.14 | 99 | 1013.2 |
| 20260905082009 | 66 | 264 | 0.0 | 4.0 | 0.00 | 0.14 | 0.14 | 99 | 1013.2 |
| 20260905081010 | 65 | 1 | 0.0 | 3.0 | 0.00 | 0.14 | 0.14 | 99 | 1013.1 |
| 20260905080010 | 63 | 59 | 1.0 | 5.0 | 0.00 | 0.14 | 0.14 | 99 | 1013.0 |
| 20260905075009 | 62 | 282 | 0.0 | 7.0 | 0.00 | 0.14 | 0.14 | 99 | 1013.0 |
| 20260905074010 | 61 | 293 | 2.0 | 7.0 | 0.00 | 0.14 | 0.14 | 99 | 1012.9 |
| 20260905073010 | 57 | 104 | 0.0 | 2.0 | 0.00 | 0.14 | 0.14 | 99 | 1012.8 |
| 20260905072010 | 56 | 82 | 1.0 | 2.0 | 0.00 | 0.14 | 0.14 | 99 | 1012.9 |
| 20260905071009 | 55 | 21 | 1.0 | 2.0 | 0.00 | 0.14 | 0.14 | 99 | 1012.8 |
| 20260905070010 | 55 | 132 | 0.0 | 2.0 | 0.01 | 0.14 | 0.14 | 99 | 1012.7 |
| 20260905065010 | 55 | 193 | 0.0 | 2.0 | 0.01 | 0.14 | 0.14 | 99 | 1012.7 |
| 20260905064011 | 55 | 181 | 0.0 | 1.0 | 0.01 | 0.14 | 0.14 | 99 | 1012.6 |
| 20260905063009 | 54 | 0 | 0.0 | 0.0 | 0.01 | 0.14 | 0.14 | 99 | 1012.4 |
| 20260905062009 | 54 | 125 | 0.0 | 2.0 | 0.01 | 0.14 | 0.14 | 99 | 1012.5 |
| 20260905061009 | 54 | 127 | 0.0 | 1.0 | 0.01 | 0.14 | 0.14 | 99 | 1012.4 |
| 20260905060009 | 54 | 164 | 0.0 | 2.0 | 0.00 | 0.13 | 0.13 | 99 | 1012.1 |
| 20260905055010 | 54 | 200 | 0.0 | 2.0 | 0.01 | 0.13 | 0.13 | 99 | 1011.9 |
| 20260905054009 | 54 | 213 | 0.0 | 2.0 | 0.01 | 0.13 | 0.13 | 99 | 1012.1 |
| 20260905053010 | 54 | 203 | 1.0 | 4.0 | 0.02 | 0.13 | 0.13 | 99 | 1012.3 |
| 20260905052009 | 55 | 165 | 1.0 | 8.0 | 0.04 | 0.13 | 0.13 | 99 | 1011.9 |
| 20260905051010 | 55 | 351 | 0.0 | 4.0 | 0.05 | 0.13 | 0.13 | 99 | 1011.5 |
| 20260905050009 | 56 | 273 | 0.0 | 3.0 | 0.06 | 0.13 | 0.13 | 99 | 1010.7 |
| 20260905045010 | 56 | 320 | 0.0 | 2.0 | 0.06 | 0.12 | 0.12 | 99 | 1010.7 |
| 20260905044011 | 57 | 191 | 1.0 | 2.0 | 0.08 | 0.12 | 0.12 | 99 | 1010.5 |
| 20260905043010 | 58 | 154 | 0.0 | 2.0 | 0.07 | 0.11 | 0.11 | 99 | 1011.0 |
| 20260905042009 | 58 | 329 | 0.0 | 3.0 | 0.07 | 0.09 | 0.09 | 99 | 1011.1 |
| 20260905041011 | 58 | 306 | 0.0 | 1.0 | 0.06 | 0.08 | 0.08 | 99 | 1011.0 |
| 20260905040010 | 58 | 185 | 0.0 | 2.0 | 0.05 | 0.07 | 0.07 | 99 | 1011.0 |
| 20260905035009 | 58 | 350 | 0.0 | 2.0 | 0.04 | 0.06 | 0.06 | 99 | 1010.5 |
| 20260905034009 | 58 | 307 | 1.0 | 2.0 | 0.01 | 0.04 | 0.04 | 99 | 1010.5 |
| 20260905033012 | 58 | 222 | 0.0 | 2.0 | 0.01 | 0.04 | 0.04 | 99 | 1010.3 |
| 20260905032009 | 58 | 293 | 0.0 | 2.0 | 0.02 | 0.02 | 0.02 | 99 | 1010.6 |
| 20260905031008 | 58 | 181 | 0.0 | 2.0 | 0.02 | 0.02 | 0.02 | 99 | 1010.1 |
| 20260905030009 | 59 | 225 | 0.0 | 1.0 | 0.02 | 0.02 | 0.02 | 99 | 1009.6 |
| 20260905025010 | 59 | 32 | 0.0 | 2.0 | 0.02 | 0.02 | 0.02 | 99 | 1009.4 |
| 20260905024009 | 60 | 326 | 0.0 | 2.0 | 0.02 | 0.02 | 0.02 | 99 | 1009.8 |
| 20260905023018 | 62 | 353 | 0.0 | 6.0 | 0.02 | 0.02 | 0.02 | 99 | 1009.2 |
| 20260905022009 | 63 | 354 | 2.0 | 5.0 | 0.00 | 0.00 | 0.00 | 96 | 1009.8 |
| 20260905021010 | 62 | 1 | 0.0 | 1.0 | 0.00 | 0.00 | 0.00 | 99 | 1008.5 |
| 20260905020009 | 63 | 1 | 0.0 | 2.0 | 0.00 | 0.00 | 0.00 | 99 | 1008.3 |
| 20260905015009 | 62 | 59 | 1.0 | 4.0 | 0.00 | 0.00 | 0.00 | 99 | 1008.5 |
| 20260905014009 | 62 | 225 | 0.0 | 2.0 | 0.00 | 0.00 | 0.00 | 99 | 1008.1 |
| 20260905013010 | 62 | 1 | 0.0 | 2.0 | 0.00 | 0.00 | 0.00 | 99 | 1007.8 |
| 20260905012009 | 62 | 331 | 1.0 | 2.0 | 0.00 | 0.00 | 0.00 | 99 | 1007.7 |
| 20260905011009 | 63 | 1 | 0.0 | 2.0 | 0.00 | 0.00 | 0.00 | 99 | 1007.8 |
| 20260905010009 | 64 | 317 | 0.0 | 6.0 | 0.00 | 0.00 | 0.00 | 99 | 1007.7 |
| 20260905005008 | 65 | 338 | 2.0 | 8.0 | 0.00 | 0.00 | 0.00 | 98 | 1007.7 |
| 20260905004008 | 66 | 52 | 2.0 | 15.0 | 0.00 | 0.00 | 0.00 | 95 | 1007.5 |
| 20260905003009 | 66 | 31 | 2.0 | 8.0 | 0.00 | 0.00 | 0.00 | 94 | 1007.3 |
| 20260905002009 | 66 | 17 | 3.0 | 9.0 | 0.00 | 0.00 | 0.00 | 94 | 1007.3 |
| 20260905001008 | 67 | 90 | 3.0 | 10.0 | 0.00 | 0.00 | 0.00 | 94 | 1007.2 |
| 20260905000010 | 67 | 25 | 5.0 | 18.0 | 0.00 | 0.00 | 0.00 | 94 | 1006.7 |
| 20260904235009 | 66 | 354 | 3.0 | 15.0 | 0.00 | 0.00 | 0.00 | 99 | 1006.6 |
| 20260904234008 | 64 | 45 | 0.0 | 2.0 | 0.00 | 0.00 | 0.00 | 99 | 1005.4 |
| 20260904233009 | 64 | 45 | 0.0 | 2.0 | 0.00 | 0.00 | 0.00 | 99 | 1005.3 |
| 20260904232010 | 64 | 45 | 0.0 | 2.0 | 0.00 | 0.00 | 0.00 | 99 | 1005.1 |